Regional Weather Roundup
Issued by NWS Sterling, VA

Home | Current Version | Previous Version | Text Only | Print | Product List | Glossary On
Versions: 1 2 3 4 5 6 7 8 9 10 11 12 13 14 15 16 17 18 19 20 21 22 23 24 25 26 27 28 29 30 31 32 33 34 35 36 37 38 39 40 41 42 43 44 45 46 47 48 49 50
000
ASUS41 KLWX 290510
RWRLWX

REGIONAL WEATHER ROUNDUP
NATIONAL WEATHER SERVICE BALTIMORE MD/WASHINGTON DC
100 AM EDT WED JUL 29 2015

Note: "FAIR" indicates few or no clouds below 12,000 feet
with no significant weather and/or obstructions to visibility.
 TC=TEMPERATURE CELSIUS

 * =Non NWS site. Station does not report precipitation (e.g. rain,
    snow, etc.), thunder, or fog.

DCZ001-MDZ009-015-VAZ040>042-051-053>054-290600-
WASHINGTON METRO

CITY           SKY/WX    TMP DP  RH WIND       PRES   REMARKS
WASHINGTON NAT PTCLDY    79  74  84 SE3       30.01S
DULLES         CLEAR     71  70  96 CALM      30.00S
ANDREWS AFB    CLEAR     71  71  98 SE2       30.00S
FT BELVOIR     CLEAR     73  72  94 CALM      30.00S FOG
QUANTICO       PTCLDY    77  72  84 CALM      30.00S
COLLEGE PARK*  CLEAR     73  73 100 CALM      30.00F
LEESBURG*      CLEAR     73  73 100 CALM      30.02S
MANASSAS*      PTCLDY    73  73 100 CALM      30.00S
GAITHERSBURG*  CLEAR     72  68  88 CALM      30.05S

$$

MDZ006>007-011-014-290600-
BALTIMORE METRO

CITY           SKY/WX    TMP DP  RH WIND       PRES   REMARKS
BWI AIRPORT    PTCLDY    74  71  91 CALM      30.00S
MD SCIENCE CTR   N/A     79  71  76 MISG      30.00F
MARTIN STATE   CLEAR     79  73  83 CALM      30.01S
ANNAPOLIS      CLEAR     78  72  81 CALM      30.00S
FORT MEADE*    CLEAR     70  68  94 CALM      30.03S

$$

MDZ012-015-019>023-290600-
MARYLAND EASTERN SHORE

CITY           SKY/WX    TMP DP  RH WIND       PRES   REMARKS
OCEAN CITY     CLEAR     71  68  90 CALM      30.00F
SALISBURY      CLEAR     72  71  97 CALM      30.00F
BAY BRIDGE AP*   N/A     75  73  94 SW3       30.00S
CAMBRIDGE*     CLEAR     73  72  94 CALM      29.99F
EASTON*        CLEAR     76  76 100 E3        30.04S

$$

MDZ017>025-290600-
SOUTHERN MARYLAND

CITY           SKY/WX    TMP DP  RH WIND       PRES   REMARKS
PATUXENT RIVER CLEAR     73  71  93 CALM      30.00S
ST INIGOES     CLEAR     74  72  93 CALM      29.99F FOG
LEONARDTOWN*   CLEAR     72  70  94 CALM      30.02S

$$

MDZ003>005-290600-
NORTH CENTRAL MARYLAND

CITY           SKY/WX    TMP DP  RH WIND       PRES   REMARKS
FREDERICK*     CLEAR     72  72 100 CALM      30.03S
HAGERSTOWN APT CLEAR     77  70  79 E5        30.02R
WESTMINSTER*   CLEAR     73  72  94 CALM      30.03S

$$

MDZ501>502-290600-
WESTERN MARYLAND

CITY           SKY/WX    TMP DP  RH WIND       PRES   REMARKS
OAKLAND*       PTCLDY    66 N/A N/A SE6       30.12S
CUMBERLAND*    PTCLDY    73  72  94 CALM      30.05F

$$

VAZ025>031-290600-
SHENANDOAH VALLEY

CITY           SKY/WX    TMP DP  RH WIND       PRES   REMARKS
WINCHESTER*    CLEAR     73  70  88 CALM      30.02R
FRONT ROYAL*   FAIR      72  72 100 CALM      30.00F
LURAY*         FAIR      73  73 100 NE3       30.02S
NEW MARKET*    FAIR      71  70  97 CALM      30.00S
STAUNTON*      MOCLDY    74  72  92 CALM      30.05S
WAYNESBORO*    FAIR      71  71 100 CALM      30.03F

$$

WVZ021-048>050-054>055-290600-
EASTERN WEST VIRGINIA PANHANDLE

CITY           SKY/WX    TMP DP  RH WIND       PRES   REMARKS
MARTINSBURG    CLEAR     72  70  93 CALM      30.01S
PETERSBURG*    CLOUDY   N/A N/A N/A CALM      30.04R HAZE

$$

VAZ036>039-050-290600-
CENTRAL FOOTHILLS

CITY           SKY/WX    TMP DP  RH WIND       PRES   REMARKS
CHARLOTTESVILL MOCLDY    72  70  93 CALM      30.01R FOG
CULPEPER*      FOG       70  70 100 CALM      30.01F VSB 1/4
ORANGE*        CLOUDY    72  72 100 CALM      30.02S FOG
GORDONSVILLE*  CLOUDY    72  72 100 CALM      30.00S FOG
WARRENTON*     FAIR      71  71 100 CALM      30.00F FOG

$$

VAZ055>057-290600-
NORTH AND CENTRAL PIEDMONT

CITY           SKY/WX    TMP DP  RH WIND       PRES   REMARKS
FREDERICKSBRG* FOG       76  76 100 CALM      29.99F VSB 1/4
STAFFORD*      PTCLDY    70  69  96 CALM      30.04F FOG

$$

NCZ024-NYZ072-PAZ021-071-VAZ022-071-290600-
OTHER REGIONAL OBSERVATIONS

CITY           SKY/WX    TMP DP  RH WIND       PRES   REMARKS
NEW YORK CITY  CLEAR     81  69  67 CALM      30.01R
PHILADELPHIA   PTCLDY    80  73  79 SW5       30.00S
PITTSBURGH     PTCLDY    78  65  63 CALM      30.02R
ROANOKE        CLOUDY    74  72  93 E7        30.04S
RICHMOND       PTCLDY    75  73  93 SE3       29.99F
RALEIGH        MOCLDY    79  73  82 SE3       30.02R

$$

ANZ530>537-290600-
MARINE OBSERVATIONS

STATION/POSITION TIME  TEMP    WIND        PRES
                       AIR SEA DIR/SP/G
                 (UTC) (F)     (DEG/KT/KT) (MB)
THOMAS PT LIGHT  NOT AVBL
BALT KEY BRIDGE  0400   79     180/  3/  4 1015.9R
COVE POINT       0400   79     240/  2/  3 1016.7S
LEWISETTA        0400   79 84  170/  3/  3 1015.5F
SOLOMONS ISLAND  0400      83                N/A

$$




USA.gov is the U.S. government's official web portal to all federal, state and local government web resources and services.